Location: *
(46.4833°N, 7.6667°E)
Time: 09:36:35
(UTC+00:00)

STARLINK-1063 - Pass Details

Date: 27 February 2020
Orbit: 549 x 550 km, 53.0° (Epoch: 10 April)

Event Time Altitude Azimuth Distance (km) Brightness Sun altitude
Rises 17:59:43 0° 226° (SW) 2,707 8.0 -9.1°
Reaches altitude 10° 18:01:58 10° 223° (SW) 1,818 7.0 -9.4°
Maximum altitude 18:06:02 59° 144° (SE) 637 3.7 -10.1°
Enters shadow 18:09:36 13° 66° (ENE) 1,628 5.5 -10.8°
